This demonstration page uses our WeatherBlox Daily Observations layout. Learn more.

Left ArrowRight Arrow

Hourly Observations for July 1, 2016

Temp ( °F °C ) Dew Point ( °F °C ) Humidity (%) Winds ( mph kmh ) Pressure ( in mb ) Visibility ( mi km ) Precip ( " mm )
12:15 am 00:15 Clear 63 17.3 59 15.1 87 87 N N/A 30.09 1019 10 16 N/A
12:35 am 00:35 Clear 64 17.8 59 15 84 84 ENE 3 6 30.12 1020 10 16 N/A
12:55 am 00:55 Clear 63 17.3 59 14.8 85 85 NE 3 6 30.12 1020 10 16 N/A
1:15 am 01:15 Clear 63 17 59 14.8 87 87 ENE 3 6 30.09 1019 10 16 N/A
1:35 am 01:35 Clear 62 16.9 58 14.7 87 87 NE 5 7 30.09 1019 10 16 N/A
1:55 am 01:55 Clear 62 16.5 58 14.6 89 89 NE 5 7 30.09 1019 10 16 N/A
2:15 am 02:15 Clear 62 16.5 58 14.5 88 88 ENE 6 9 30.09 1019 10 16 N/A
2:35 am 02:35 Clear 62 16.5 58 14.5 88 88 NE 6 9 30.09 1019 10 16 N/A
2:55 am 02:55 Clear 62 16.5 58 14.5 88 88 ENE 7 11 30.09 1019 10 16 N/A
3:15 am 03:15 Clear 61 16.2 58 14.3 89 89 ENE 6 9 30.09 1019 10 16 N/A
3:35 am 03:35 Clear 61 16 58 14.2 89 89 ENE 5 7 30.12 1020 10 16 N/A
3:55 am 03:55 Partly Cloudy 61 16.1 58 14.3 89 89 NE 7 11 30.09 1019 10 16 N/A
4:15 am 04:15 Partly Cloudy 61 16.2 58 14.2 88 88 ENE 5 7 30.12 1020 10 16 N/A
4:55 am 04:55 Partly Cloudy 60 15.8 57 13.9 89 89 ENE 6 9 30.12 1020 10 16 N/A
5:15 am 05:15 Clear 60 15.6 57 14 90 90 E 6 9 30.12 1020 10 16 N/A
5:35 am 05:35 Clear 60 15.7 57 14 90 90 E 6 9 30.12 1020 10 16 N/A
5:55 am 05:55 Clear 60 15.7 57 14 90 90 E 6 9 30.12 1020 10 16 N/A
6:15 am 06:15 Sunny 60 15.5 57 13.8 90 90 E 3 6 30.12 1020 10 16 N/A
6:35 am 06:35 Sunny 60 15.5 57 13.7 89 89 E 5 7 30.12 1020 10 16 N/A
6:55 am 06:55 Partly Cloudy 60 15.7 56 13.5 87 87 E 5 7 30.12 1020 10 16 N/A
7:15 am 07:15 Mostly Cloudy 60 15.8 56 13.5 86 86 E 6 9 30.12 1020 10 16 N/A
7:35 am 07:35 Mostly Cloudy 61 16.3 57 13.7 85 85 E 6 9 30.12 1020 10 16 N/A
7:55 am 07:55 Partly Cloudy 62 16.8 57 14 84 84 ESE 7 11 30.12 1020 10 16 N/A
8:15 am 08:15 Partly Cloudy 62 16.9 57 13.9 83 83 E 9 15 30.12 1020 10 16 N/A
8:35 am 08:35 Partly Cloudy 64 17.5 57 14.1 81 81 E 9 15 30.12 1020 10 16 N/A
8:55 am 08:55 Partly Cloudy 64 17.5 57 14 80 80 ESE 7 11 30.12 1020 10 16 N/A
9:15 am 09:15 Partly Cloudy 64 18 58 14.2 79 79 ESE 6 9 30.09 1019 10 16 N/A
9:35 am 09:35 Mostly Cloudy 65 18.6 58 14.2 76 76 ESE 8 13 30.09 1019 10 16 N/A
9:55 am 09:55 Partly Cloudy 67 19.4 59 14.8 75 75 E 9 15 30.09 1019 10 16 N/A
10:15 am 10:15 Sunny 67 19.6 59 15.2 76 76 E 8 13 30.09 1019 10 16 N/A
10:35 am 10:35 Sunny 68 19.8 59 15.1 74 74 ESE 7 11 30.09 1019 10 16 N/A
10:55 am 10:55 Sunny 68 20.2 60 15.5 75 75 ESE 9 15 30.09 1019 10 16 N/A
11:15 am 11:15 Sunny 69 20.3 60 15.5 74 74 SE 8 13 30.09 1019 10 16 N/A
11:35 am 11:35 Sunny 69 20.8 61 16.1 75 75 ESE 10 17 30.09 1019 10 16 N/A
12:15 pm 12:15 Mostly Cloudy 69 20.8 61 16.2 75 75 ESE 10 17 30.09 1019 10 16 N/A
12:35 pm 12:35 Cloudy 69 20.8 62 16.6 77 77 ESE 9 15 30.09 1019 10 16 N/A
12:55 pm 12:55 Mostly Cloudy 70 21 62 16.5 76 76 ESE 12 19 30.06 1018 10 16 N/A
1:15 pm 13:15 Mostly Cloudy with Light Rain 70 21 62 16.7 77 77 ESE 10 17 30.06 1018 10 16 N/A
1:35 pm 13:35 Cloudy with Drizzle 70 21 62 16.7 77 77 SE 9 15 30.06 1018 10 16 N/A
1:55 pm 13:55 Cloudy 70 21.1 62 16.7 76 76 ESE 9 15 30.03 1017 10 16 N/A
2:15 pm 14:15 Cloudy 70 21 62 16.6 76 76 ESE 9 15 30.06 1018 10 16 N/A
2:35 pm 14:35 Cloudy with Light Rain 70 21 62 16.8 77 77 ESE 9 15 30.06 1018 10 16 N/A
2:55 pm 14:55 Cloudy with Light Rain 70 21 64 17.8 82 82 E 8 13 30.06 1018 10 16 N/A
3:15 pm 15:15 Cloudy with Light Rain 70 21.2 63 17.1 78 78 SE 8 13 30.03 1017 10 16 0.01 0.25
3:35 pm 15:35 Cloudy with Rain 69 20.7 62 16.9 79 79 SE 8 13 30.03 1017 10 16 0.02 0.51
3:55 pm 15:55 Cloudy with Light Rain 68 20.2 63 17.1 82 82 SE 8 13 30.03 1017 7 11 0.04 1.02
4:15 pm 16:15 Cloudy with Light Rain 68 20.2 64 17.5 85 85 SE 7 11 30.03 1017 7 11 0.02 0.51
4:35 pm 16:35 Cloudy with Rain 68 20.2 64 17.6 85 85 ESE 7 11 30.03 1017 10 16 0.03 0.76
4:55 pm 16:55 Cloudy with Light Rain 68 20.2 64 17.8 86 86 E 8 13 30.00 1016 10 16 0.04 1.02
5:15 pm 17:15 Cloudy with Light Rain 68 20.2 65 18.2 88 88 E 8 13 30.00 1016 10 16 N/A
5:35 pm 17:35 Cloudy with Light Rain 68 20.2 65 18.5 90 90 E 8 13 30.00 1016 10 16 N/A
5:55 pm 17:55 Cloudy with Drizzle 68 20.1 65 18.4 90 90 E 8 13 30.00 1016 10 16 N/A
6:15 pm 18:15 Cloudy 68 19.8 64 18 89 89 E 9 15 30.00 1016 10 16 N/A
6:35 pm 18:35 Cloudy 67 19.5 64 17.5 88 88 E 10 17 29.97 1015 10 16 0.01 0.25
6:55 pm 18:55 Partly Cloudy 79 26 60 15.8 53 53 NE 8 13 29.94 1014 10 16 N/A
7:15 pm 19:15 Cloudy 67 19.3 62 16.5 84 84 E 10 17 29.97 1015 10 16 N/A
7:35 pm 19:35 Cloudy 66 19 61 16.2 84 84 E 12 19 29.97 1015 10 16 N/A
7:55 pm 19:55 Cloudy 66 18.8 60 15.6 82 82 E 12 19 29.97 1015 10 16 N/A
8:15 pm 20:15 Cloudy 66 18.7 59 15.2 80 80 E 9 15 29.97 1015 10 16 N/A
8:35 pm 20:35 Cloudy 65 18.5 59 15 80 80 E 12 19 29.97 1015 10 16 N/A
8:55 pm 20:55 Cloudy 65 18.5 59 14.9 80 80 E 10 17 29.97 1015 10 16 N/A
9:15 pm 21:15 Cloudy 65 18.5 59 14.8 79 79 E 9 15 29.97 1015 10 16 N/A
9:35 pm 21:35 Cloudy 65 18.3 58 14.6 79 79 E 12 19 29.97 1015 10 16 N/A
9:55 pm 21:55 Cloudy 65 18.3 59 14.8 80 80 ESE 13 20 29.97 1015 10 16 N/A
10:15 pm 22:15 Cloudy 65 18.5 59 15 80 80 ESE 10 17 29.97 1015 10 16 N/A
10:35 pm 22:35 Cloudy 65 18.1 59 15 82 82 E 12 19 29.97 1015 10 16 N/A
10:55 pm 22:55 Cloudy 65 18.2 58 14.6 80 80 E 8 13 29.97 1015 10 16 N/A
11:15 pm 23:15 Cloudy 64 18 57 14 78 78 E 10 17 29.97 1015 10 16 N/A
11:35 pm 23:35 Cloudy 64 18 56 13.5 75 75 E 12 19 29.97 1015 10 16 N/A
11:55 pm 23:55 Cloudy 64 17.8 56 13.2 75 75 E 9 15 29.97 1015 10 16 N/A

Powered by AerisWeather